Location: Chiroubles
(46.1812°N, 4.6660°E)
Time: 06:11:48
(UTC+00:00)

Transit 4A - Pass Details

Date: 04 December 2020
Orbit: 864 x 981 km, 66.8° (Epoch: 16 January)

Event Time Altitude Azimuth Distance (km) Brightness Sun altitude
Rises 12:16:45 0° 325° (NW) 3,692 10.6 20.7°
Reaches altitude 10° 12:20:37 10° 347° (NNW) 2,736 9.9 20.6°
Maximum altitude 12:24:16 15° 22° (NNE) 2,347 9.5 20.5°
Drops below altitude 10° 12:27:53 10° 57° (ENE) 2,706 10.0 20.3°
Sets 12:31:39 0° 80° (E) 3,629 10.7 20.1°
